Other Surface Observations
Issued by NWS

Home | Current Version | Previous Version | Text Only | Print | Product List | Glossary On
Versions: 1 2 3 4 5 6 7 8 9 10 11 12 13 14 15 16 17 18 19 20 21 22 23 24 25 26 27 28 29 30 31 32 33 34 35 36 37 38 39 40 41 42 43 44 45 46 47 48 49 50
000
SXUS52 KTAE 010418
OSOTAE
OSOTAE
North Florida/South Alabama/Southwest Georgia Weather Roundup
National Weather Service Tallahassee Florida
1100 PM EST SAT JAN 31 2015

Note: "fair" indicates few or no clouds below 12,000 feet with no
significant weather and/or obstructions to visibility.

!FLZ017-115-028-034-025-010500
...North Florida...

CITY           SKY/WX    TMP DP  RH WIND       PRES   REMARKS
TALLAHASSEE    MOCLDY    40  31  70 CALM      30.26F
APALACHICOLA   MOCLDY    55  41  59 E7        30.23S
PERRY          PTCLDY    51  42  71 E5        30.28S
CROSS CITY       N/A     51  42  71 E3        30.28S
JACKSONVILLE   MOCLDY    40  39  97 CALM      30.32F
$$

!FLZ112-006-005-002-011-010500
...Florida Panhandle...

CITY           SKY/WX    TMP DP  RH WIND       PRES   REMARKS
MARIANNA       CLOUDY    46  37  71 E3        30.24F
BONIFAY        FAIR      42  38  85 CALM      30.26F
PANAMA CITY NW FAIR      47  37  68 NE6       30.22F WCI  44
TYNDALL AFB    MOCLDY    51  40  67 E5        30.24S
TYND DRONE APT FAIR      49  40  73 E6        30.22S
DE FUNIAK SPR  FAIR      46  33  61 E3        30.24R
EGLIN AFB      MOCLDY    48  40  75 NE3       30.22S
DESTIN         PTCLDY    50  41  71 E5        30.22S
HURLBURT       MOCLDY    45  39  81 NE3       30.21F
CRESTVIEW      MOCLDY    40  37  89 CALM      30.25S
PENSACOLA      MOCLDY    50  42  74 E5        30.20F
$$

!ALZ063-066-010500
...South Alabama...

CITY           SKY/WX    TMP DP  RH WIND       PRES   REMARKS
DOTHAN         CLOUDY    48  30  49 E5        30.28S
OZARK CAIRNS   CLOUDY    47  30  51 E6        30.24F WCI  44
FT RUCKER HELI CLOUDY    41  34  76 CALM      30.24F
RUCKER HELI 3  FAIR      47  30  50 E3        30.26F
RUCKER HELI 2  FAIR      48  29  47 NE5       30.24F
FLORALA APT    MOCLDY    49  31  49 CALM      30.25S
ANDALUSIA      MOCLDY    49  30  48 SE3       30.23S
TROY           CLOUDY    48  28  46 E3        30.25F
EUFALA         FAIR      41  34  76 CALM      30.26S
MOBILE         MOCLDY    50  44  80 E8        30.20F
$$

!GAZ120>161-010500
...Southwest and South Central Georgia...

CITY           SKY/WX    TMP DP  RH WIND       PRES   REMARKS
THOMASVILLE    FAIR      48  37  66 SE7       30.29F
BAINBRIDGE     PTCLDY    46  37  71 CALM      30.26F
MOODY AFB      CLEAR     45  37  71 E8        30.30S WCI  41
VALDOSTA       PTCLDY    47  38  71 E6        30.30F WCI  44
MOULTRIE       PTCLDY    46  36  66 SE5       30.28F WCI  44
BLAKELY        MOCLDY    43  36  75 CALM      30.27S
ALBANY         CLEAR     42  31  64 CALM      30.29F
TIFTON         FAIR      45  34  65 SE6       30.29F WCI  41
FITZGERALD     FAIR      44  32  61 CALM      30.32F HAZE
CORDELE        FAIR      38  33  81 CALM      30.30F
AMERICUS       FAIR      37  32  81 SE3       30.30S
HOMERVILLE     FAIR      45  37  76 CALM      30.32S
$$

!GMZ750-755-770-775-010500
...Coastal and Buoy Obs...

STATION/POSITION TIME  TEMP    WIND        PRES    VSBY  WAVE
                       AIR SEA DIR/SP/G                  HT/PER
                 (UTC) (F)     (DEG/KT/KT) (MB)    (MI)  (FT/S)
KEATON BEACH     0400   52      80/ 11/ 12 1025.0F
CEDAR KEY        0400   54      80/ 14/ 16 1025.4F
C TOWER          0400   61      90/ 17/ 19 1023.3F
APALACHICOLA BUO 0400   65 67   90/ 19/ 21 1022.8F         3/ 4
PANAMA CITY BUOY 0345   65 69  140/ 19/ 21 1022.4F         4/ 6
MOBILE BUOY      0341   64 69  130/ 16/ 21 1022.1F         4/ 6
ORANGE BCH AL BU 0400   61 62  110/ 17/ 19 1021.4F         4/ 5
$$



USA.gov is the U.S. government's official web portal to all federal, state and local government web resources and services.